Retour au catalogue

STARLINK-6133

ActifCommunicationsVLEO
NORAD 57134·PAYLOAD·🇺🇸 United States

Lancé Jun 23, 2023 depuis Cape Canaveral Space Force Station

Loading…

Prochains Passages (prochaines 24 heures)

TLE

FraisSource: CelesTrak SupGP

Époque: Sep 14, 2026, 21:24 UTC

1 57134C 23090AK  26257.89215278  .00019654  00000+0  71191-3 0  2571
2 57134  43.0019 274.5074 0001185 278.1198  67.4411 15.27567796    18

Suivez STARLINK-6133 en temps réel avec AllMySat

Download on the App Store